Location: Stockholm
(59.3333°N, 18.0500°E)
Time: 13:41:51
(UTC+02:00)

ISS - Pass Details

Date: 25 May 2018
Orbit: 402 x 406 km, 51.6° (Epoch: 18 June)

Event Time Altitude Azimuth Distance (km) Brightness Sun altitude
Rises 23:33:37 0° 252° (WSW) 2,323 0.0 -8.3°
Reaches altitude 10° 23:36:01 10° 236° (SW) 1,462 -1.2 -8.4°
Maximum altitude 23:38:33 21° 185° (S) 971 -2.5 -8.5°
Drops below altitude 10° 23:41:06 10° 134° (SE) 1,459 -1.5 -8.5°
Enters shadow 23:41:33 - 130° (SE) 1,612 -1.3 -8.6°
